Theta_e
344 343 344 344 343 344 346 345 345 346 346 348 349 349 348 348 346 345 345 344 343 343 343 343 342 342 342 342 342 343 343 342 344 344 345 342 334 330 331 330 329 329 327 327 326 325 325 324 323 322 321 321 321 321 320 319 319 319 318 318 318 319 320 320 322 322 323 324 325 326 328 329 329 329 330 330 330 330 330 330 330 331 331 331 331
345 345 346 348 347 347 347 345 346 348 348 349 349 349 349 349 348 347 346 344 343 344 343 342 342 342 343 343 343 343 343 343 344 343 345 346 339 331 331 331 329 328 328 327 326 325 324 322 322 321 321 320 320 319 319 319 318 319 319 321 322 324 325 327 329 330 332 333 334 335 336 337 337 338 338 338 338 338 338 338 338 338 339 339 339
346 347 348 350 349 347 347 347 348 349 349 350 349 349 350 350 350 350 349 346 344 344 342 341 341 342 343 344 344 344 345 345 345 345 344 347 344 334 330 330 329 328 327 327 326 325 323 321 322 320 319 319 319 319 319 320 320 322 324 326 329 330 332 334 335 336 336 337 337 337 338 338 338 338 338 339 339 339 339 339 339 340 340 340 340
348 348 348 349 348 347 348 349 350 350 350 351 350 350 351 351 351 350 350 349 346 344 343 342 341 342 343 344 345 344 346 346 344 344 344 346 348 343 334 326 325 326 326 326 324 323 322 321 320 320 320 319 319 320 321 323 325 327 330 331 333 334 334 335 335 335 335 335 335 335 335 335 335 335 336 336 336 336 337 337 338 339 339 340 341
348 348 348 348 348 348 348 350 351 351 351 351 352 352 351 350 351 350 349 350 349 348 345 343 342 343 343 344 345 344 344 345 344 344 344 346 348 348 343 331 325 324 322 322 322 321 320 320 320 319 320 320 321 323 325 327 330 331 332 332 333 333 333 333 333 333 332 332 332 332 332 332 332 332 332 333 333 333 334 336 337 338 340 341 342
347 350 350 348 349 349 350 351 351 351 352 351 351 352 352 351 351 350 350 350 350 350 348 345 343 344 344 344 345 344 344 345 344 344 345 346 346 348 348 343 340 333 326 324 321 320 320 319 320 320 321 323 324 326 328 331 332 332 332 332 332 331 331 331 330 331 331 331 330 330 330 330 331 332 332 333 333 334 335 336 337 339 340 342 343
346 351 351 349 350 351 352 352 352 353 351 350 351 352 352 352 352 351 350 350 350 351 350 348 346 344 345 345 344 345 345 343 344 343 342 344 346 347 348 350 350 347 345 339 325 320 321 320 320 321 323 324 326 329 331 332 332 332 332 331 330 330 329 329 331 331 330 329 330 330 330 330 330 331 331 332 333 334 336 337 338 339 340 341 342
344 350 353 351 350 351 352 349 351 354 349 350 353 353 352 351 351 352 350 348 350 351 351 349 348 346 346 344 344 345 344 343 344 343 343 343 344 345 346 348 349 347 349 349 339 328 322 321 322 323 324 326 327 331 333 333 333 333 332 331 330 328 329 330 332 332 329 328 329 330 330 330 329 328 328 328 329 329 330 332 335 337 338 339 339
344 349 352 351 350 351 351 350 353 351 349 352 354 353 354 351 348 350 351 349 350 350 351 350 348 347 346 344 343 344 344 344 344 342 342 344 343 343 345 345 345 346 348 349 349 342 329 325 324 324 325 326 329 332 333 334 334 335 334 333 331 330 330 330 331 332 330 329 329 330 331 331 331 331 331 331 330 330 329 328 328 329 331 332 333
343 347 351 352 351 352 351 352 353 351 351 355 354 353 355 354 351 348 349 352 352 350 350 349 347 345 344 342 343 343 342 343 344 342 341 342 343 342 344 346 344 346 347 346 348 348 342 336 330 328 327 326 331 333 333 335 335 335 336 335 334 332 332 331 331 331 332 332 331 332 333 333 334 335 335 335 335 335 335 333 331 329 328 328 328
342 344 351 353 352 352 351 350 352 352 353 353 353 352 349 351 353 350 350 353 353 352 350 347 345 344 343 342 344 345 342 341 343 344 342 341 342 341 342 345 344 344 344 343 345 346 347 348 343 342 335 327 330 333 332 333 333 334 334 333 333 332 332 332 332 332 332 333 333 333 334 334 335 336 337 338 338 338 339 339 338 336 333 331 329
342 343 348 353 355 353 348 350 353 352 352 354 355 352 346 347 350 350 355 355 353 352 349 346 344 343 344 343 344 344 342 343 343 342 342 341 343 343 342 341 341 342 342 343 345 343 344 349 349 351 345 332 329 331 332 333 332 332 331 332 332 332 332 333 333 333 332 332 332 333 333 334 336 337 339 339 340 341 341 341 341 341 341 339 336
344 344 345 349 352 350 345 349 354 352 352 354 352 348 344 348 350 352 357 357 354 351 348 347 344 343 346 345 344 342 342 345 344 341 341 341 341 342 342 340 339 340 342 342 343 343 344 346 347 350 350 343 336 332 332 333 332 332 331 332 333 332 332 332 333 332 332 332 332 333 333 334 336 337 339 339 340 341 341 342 342 343 343 343 342
344 344 344 345 348 348 344 347 350 349 347 348 346 344 344 349 353 355 356 355 354 352 350 350 346 345 346 344 345 344 343 345 344 342 340 339 339 340 341 343 342 341 340 338 341 344 345 345 343 342 347 351 349 343 340 337 333 333 332 332 332 333 333 333 334 334 334 334 333 334 334 334 336 336 338 339 340 341 341 342 343 344 345 346 346
344 345 346 347 348 350 351 349 347 346 345 345 345 344 346 351 355 355 354 354 353 350 351 352 349 347 346 344 345 345 345 345 344 343 340 339 339 339 341 342 341 340 340 340 342 342 342 342 342 341 345 351 351 350 351 347 339 336 334 333 332 333 336 336 337 336 336 335 335 335 334 335 335 337 337 339 340 341 342 343 344 345 347 348 348
349 350 352 348 346 351 356 352 346 346 346 345 347 349 351 354 354 353 354 353 352 351 350 351 351 350 348 347 346 345 347 346 344 343 341 341 339 338 342 341 339 340 342 343 341 339 340 340 343 345 347 350 349 350 353 352 349 342 335 334 335 338 341 341 341 340 339 338 336 335 335 335 336 337 338 339 340 341 342 344 345 347 347 348 349
351 353 354 348 345 349 352 351 347 346 348 350 352 354 354 354 352 354 355 351 352 353 351 350 350 350 349 348 348 347 347 346 344 344 343 343 340 338 341 341 339 340 342 342 339 341 343 342 342 343 344 348 348 348 350 351 353 349 340 337 340 343 344 344 343 342 342 341 340 339 338 338 337 338 338 338 339 340 342 344 345 347 347 348 349
350 349 351 346 345 346 346 351 351 346 348 354 353 352 353 354 353 355 356 352 352 353 352 350 349 350 349 348 350 350 350 347 344 344 344 343 342 340 341 340 339 340 343 343 341 342 343 343 344 343 343 347 347 347 349 348 349 351 346 342 344 346 345 345 345 343 342 342 342 342 341 341 340 338 338 338 339 340 341 342 344 346 346 347 349
352 348 347 345 344 345 345 351 354 350 347 351 353 353 354 354 352 352 352 350 351 352 352 351 350 351 351 349 349 349 350 349 347 346 344 343 344 343 342 341 340 342 343 343 343 343 342 341 343 343 344 347 345 346 348 347 347 350 348 345 346 346 346 346 346 344 342 340 340 341 341 341 340 338 337 337 339 340 341 341 342 344 345 346 348
355 349 344 345 344 344 345 347 353 353 350 352 354 355 354 351 347 345 345 346 349 350 350 350 352 352 351 351 350 347 347 348 348 348 347 346 346 343 343 343 342 342 343 342 342 343 342 341 342 342 344 345 343 343 346 349 349 352 352 348 345 346 346 346 346 344 340 337 336 336 337 337 337 337 336 336 337 339 339 339 340 340 340 343 347
350 347 344 346 344 344 345 345 350 353 352 355 355 353 353 347 343 345 347 347 347 348 348 351 355 354 352 352 351 349 349 347 346 347 347 348 346 344 343 344 344 343 341 341 342 342 343 344 342 342 344 344 343 343 346 347 347 352 354 349 345 345 346 345 344 341 336 334 333 333 333 333 332 332 333 334 336 337 338 337 335 333 332 334 337
349 347 344 346 345 345 348 348 350 353 353 355 355 351 348 345 346 349 348 347 348 348 351 353 354 355 354 353 351 352 352 350 349 348 347 347 346 345 345 345 346 345 342 342 343 342 342 344 344 344 345 345 344 344 348 346 341 346 350 347 344 344 343 342 340 336 333 332 331 330 329 328 328 329 330 333 335 336 335 333 331 328 327 327 327
353 349 345 348 346 346 352 354 353 354 352 352 355 354 351 352 353 350 346 346 347 348 351 354 354 352 353 353 352 352 351 350 352 349 347 348 348 346 346 346 346 345 345 344 344 343 342 343 344 346 347 346 344 344 345 345 340 341 348 349 346 342 340 339 336 333 330 329 328 327 326 326 326 327 329 333 335 335 333 330 328 327 326 326 325
356 352 349 353 351 346 352 357 354 353 353 352 356 356 353 355 355 352 350 348 347 347 348 353 355 352 353 354 352 352 349 349 352 349 347 350 348 346 346 347 346 345 346 346 345 345 344 344 343 344 347 346 346 347 344 342 342 344 350 353 346 339 338 336 333 330 328 327 326 326 325 325 325 326 328 331 334 335 332 329 327 327 326 326 326
355 353 352 355 354 348 349 353 351 350 350 350 352 352 351 355 355 354 355 352 350 349 347 353 357 353 353 354 351 351 350 349 351 349 349 349 348 348 350 350 347 345 348 348 346 343 341 344 345 343 346 346 345 347 345 342 344 347 351 350 344 341 341 337 331 328 327 326 326 325 325 325 324 325 325 328 331 333 333 330 329 328 328 327 326
354 354 354 355 355 351 347 348 347 345 345 345 346 346 346 351 353 353 355 354 351 349 349 354 356 353 354 355 353 351 350 350 350 349 349 349 348 351 354 353 349 346 348 350 348 345 342 344 347 345 347 347 344 343 344 343 344 348 348 345 346 349 347 338 330 327 326 326 326 325 324 324 324 324 324 326 327 329 331 331 330 330 330 328 327
354 355 354 354 356 354 347 347 346 344 345 344 346 347 344 347 350 349 351 352 349 349 353 355 355 354 355 355 353 352 350 350 351 350 350 350 350 352 354 356 355 350 348 348 348 348 347 345 347 348 347 348 347 346 346 346 345 347 347 347 350 352 347 337 330 327 326 326 326 325 324 325 324 325 325 326 326 327 328 328 329 330 330 330 329
355 355 354 352 353 352 349 349 347 344 345 344 347 351 348 348 350 348 349 354 353 349 353 357 355 354 355 354 353 353 353 353 352 352 352 352 353 354 355 358 357 354 353 352 350 350 349 347 347 348 347 349 350 346 345 347 347 348 350 349 349 350 347 339 330 326 327 328 327 327 326 326 326 326 326 327 328 328 328 327 327 327 328 329 329
355 355 354 351 350 349 351 353 349 345 346 345 346 348 346 346 350 347 348 355 355 349 352 357 357 354 354 354 354 353 354 354 353 352 352 351 352 355 357 358 357 356 357 356 352 350 349 349 349 349 349 351 352 349 346 348 349 348 349 348 348 350 347 337 328 331 336 336 334 334 333 331 329 327 328 328 328 329 328 328 327 327 327 327 328
354 355 355 353 351 347 348 353 352 347 347 349 349 346 344 347 351 349 348 351 351 348 351 355 355 356 355 355 355 355 355 355 353 353 353 353 355 357 357 358 357 356 357 355 353 351 348 347 348 349 350 350 351 350 347 346 346 346 348 349 349 347 339 331 333 341 345 343 341 341 340 338 334 330 329 329 329 329 329 329 329 328 327 326 326
354 356 356 356 354 349 345 349 353 350 348 352 352 347 345 348 350 350 351 352 348 346 350 353 354 356 356 355 355 355 356 356 354 353 355 355 356 356 357 358 358 356 356 353 351 350 348 345 346 348 348 349 349 349 347 344 343 344 349 350 348 343 337 336 342 346 345 344 343 343 342 342 339 333 329 329 329 329 331 332 331 330 329 327 326
355 355 354 356 357 354 350 351 354 354 353 354 355 352 348 347 349 351 353 352 348 347 352 355 355 356 357 356 356 355 355 357 357 355 355 356 356 356 356 357 357 356 357 354 351 351 349 347 347 347 347 349 348 348 349 347 343 344 348 348 346 344 343 344 345 344 344 343 342 341 342 342 340 335 331 330 330 332 334 335 334 333 331 329 327
355 355 355 355 356 356 355 355 355 356 356 355 357 357 352 346 347 351 352 350 347 349 353 354 354 356 358 355 353 353 352 354 356 355 354 354 354 355 355 356 356 356 358 357 356 355 352 350 349 348 349 348 346 346 348 347 345 344 345 345 345 345 344 344 344 343 343 342 340 341 341 340 338 338 336 332 331 334 337 338 337 335 333 331 329
354 356 355 355 355 355 355 356 355 357 357 353 354 358 356 351 349 352 354 350 347 349 351 350 350 354 356 353 350 351 351 352 353 353 352 352 352 353 354 355 355 355 356 355 355 355 354 352 350 349 348 347 346 346 346 346 345 345 345 346 346 345 343 342 342 342 341 340 340 340 338 338 340 341 340 335 332 334 336 339 339 337 334 332 330
354 355 355 355 356 355 355 356 356 357 356 352 352 357 357 353 350 352 355 354 354 354 353 351 352 353 354 353 352 353 352 352 353 353 352 351 350 350 351 351 351 351 352 352 353 353 353 351 348 349 348 347 347 347 346 346 346 345 345 346 345 345 343 342 341 340 340 339 339 338 338 340 342 342 342 340 336 334 335 338 340 338 335 332 330
354 354 355 355 357 356 355 356 356 355 354 353 354 355 356 353 350 350 353 355 356 356 355 356 356 355 355 354 354 353 352 352 352 352 351 349 349 349 349 350 351 351 352 352 353 353 353 351 349 348 347 346 347 348 348 347 346 345 345 344 344 343 341 340 339 340 340 339 338 338 339 341 341 343 346 344 340 338 336 337 338 339 338 334 330
353 354 354 355 357 357 355 355 355 354 354 355 355 355 355 355 353 353 354 354 354 353 354 354 353 353 354 353 352 352 352 352 351 350 350 349 349 349 348 349 348 349 351 351 352 352 353 354 352 347 344 346 349 350 349 348 348 347 345 344 344 344 343 343 342 341 341 340 340 340 341 342 343 346 347 345 344 344 339 337 339 340 340 338 334
352 353 354 353 355 357 356 355 355 355 355 355 355 355 355 356 356 355 355 355 355 354 354 354 352 352 352 352 351 351 351 351 350 350 349 349 349 348 348 348 349 349 350 350 350 351 351 352 352 349 347 348 348 348 347 347 347 347 347 348 349 348 347 347 346 346 345 343 344 344 344 345 346 346 345 346 349 348 344 342 343 344 344 342 337
352 352 353 353 354 355 355 354 354 355 355 354 354 354 354 355 357 357 357 356 355 355 355 354 353 353 352 352 352 351 351 351 350 349 349 348 349 348 348 348 348 349 349 348 348 348 348 349 349 348 347 346 346 346 347 346 347 348 349 349 349 348 348 349 350 351 349 348 349 349 346 345 345 345 347 349 350 348 348 348 348 350 351 346 339
352 352 352 353 354 354 354 353 353 353 353 353 353 353 353 355 356 357 357 356 356 355 355 354 353 352 351 351 351 351 351 351 351 351 349 348 348 348 347 347 348 349 349 348 347 347 348 348 347 346 346 346 347 347 347 347 347 348 347 347 347 347 348 349 351 352 351 351 352 351 347 345 346 348 349 349 350 350 351 352 352 353 352 347 342
351 352 352 352 352 352 353 353 353 352 352 353 353 352 353 354 354 355 356 355 354 354 354 354 352 351 351 351 350 349 350 350 350 350 349 347 345 344 342 343 345 346 346 345 346 347 347 348 349 347 347 347 346 346 346 346 346 347 347 348 348 348 349 350 350 351 352 353 353 353 351 350 350 350 348 348 351 352 352 352 352 352 351 348 345
352 353 353 352 352 351 352 353 353 351 350 350 350 351 352 352 352 353 353 352 352 353 354 353 352 351 351 350 349 348 348 348 349 348 347 344 341 339 337 336 337 339 340 341 345 347 347 348 347 346 346 347 348 348 349 350 350 350 351 351 352 352 353 354 352 349 350 353 355 354 353 351 350 347 347 351 354 353 352 352 352 352 350 348 347
354 354 354 354 353 352 352 352 352 352 351 348 347 348 350 351 351 351 351 351 352 353 353 353 352 351 350 348 348 347 347 348 348 348 347 344 342 341 340 339 339 341 342 343 344 346 347 348 347 347 349 350 350 350 350 351 352 351 351 350 351 353 356 357 355 350 349 352 354 353 350 348 349 350 351 354 355 353 352 351 351 351 349 347 347
354 354 354 355 354 353 352 352 351 350 349 348 347 346 347 348 347 346 347 349 350 350 350 350 350 350 350 348 347 346 346 346 347 349 350 349 346 344 343 343 344 345 344 345 346 346 346 347 347 348 349 350 350 349 349 350 352 351 350 350 352 355 356 357 355 351 348 349 350 350 348 348 352 355 355 354 353 352 351 351 352 352 350 348 348
353 353 351 352 353 353 352 351 350 348 347 346 346 346 346 347 346 344 342 345 347 347 347 349 349 350 351 350 350 349 347 346 346 348 351 353 352 348 344 344 344 345 346 347 347 347 348 349 349 348 349 350 350 350 350 351 352 353 353 352 353 354 353 352 351 348 346 346 348 350 351 352 355 357 356 355 354 353 352 352 352 352 352 351 350
351 350 349 347 347 348 347 347 348 347 346 345 345 345 345 346 346 344 340 341 346 347 347 348 348 348 349 350 351 351 350 350 349 348 350 353 354 352 351 351 348 345 345 346 347 348 348 349 351 351 352 352 352 352 352 353 354 354 354 353 352 351 351 350 349 347 347 348 352 355 355 354 354 356 356 356 356 355 354 354 354 354 354 354 351
351 350 349 347 346 346 347 348 348 346 346 346 346 345 345 346 346 345 340 339 341 344 346 348 349 349 349 349 351 352 352 352 352 351 352 353 352 350 352 355 353 347 344 345 345 346 349 350 351 353 354 354 353 353 352 352 353 352 353 352 351 350 350 350 350 351 352 352 354 355 355 354 354 354 354 354 355 356 357 356 356 356 356 355 353
352 351 350 350 350 350 351 350 349 347 346 346 348 347 347 347 346 344 342 340 339 340 343 346 348 350 350 350 351 352 351 351 352 353 352 352 351 350 350 351 350 347 345 346 346 347 351 353 352 352 354 354 352 351 351 351 351 351 351 351 350 351 352 354 354 354 354 353 352 352 353 354 354 355 355 355 355 356 357 356 355 355 355 354 354
352 352 351 351 350 350 350 349 348 349 349 348 349 350 349 348 346 344 344 346 347 346 346 348 349 351 351 350 351 351 348 348 350 351 350 349 350 350 350 350 349 348 348 349 350 349 351 352 352 352 353 352 351 350 350 350 350 351 351 351 351 353 355 356 356 354 354 354 353 353 353 354 354 355 355 354 353 353 354 353 352 353 355 355 356
350 350 350 350 348 348 349 347 346 348 349 349 349 349 349 348 346 346 347 350 351 349 347 349 352 353 352 352 352 350 347 346 347 348 348 348 349 350 350 351 351 351 351 351 351 351 351 350 351 351 351 351 350 350 349 349 348 349 352 353 354 354 355 356 356 355 354 355 355 355 355 354 354 354 354 353 353 353 354 354 353 354 354 355 357
349 349 349 350 350 349 348 346 346 347 348 348 347 347 348 348 348 349 351 351 351 348 346 349 352 351 351 352 351 349 348 348 349 348 348 348 349 350 351 351 351 352 353 352 352 351 350 350 350 350 350 350 349 347 346 346 347 349 352 354 354 354 354 355 354 354 355 355 355 354 354 354 354 353 353 354 355 353 352 353 354 355 354 355 356
Wind_Speed
15 15 13 12 11 10 10 10 10 9 7 6 6 6 5 5 6 7 7 6 6 7 6 7 7 7 7 7 7 7 7 6 6 6 4 3 5 6 5 6 6 6 7 7 8 8 9 10 10 10 10 10 9 9 9 9 10 10 9 9 9 9 9 9 8 8 7 7 7 7 7 6 6 6 6 6 6 6 7 7 7 8 8 8 9
14 14 13 11 8 7 9 9 8 7 7 7 6 5 4 4 5 5 6 5 6 6 6 6 6 6 6 6 6 6 6 6 6 6 6 3 3 6 6 5 6 6 6 7 8 8 9 9 9 9 9 9 10 10 10 10 10 10 10 10 10 10 10 9 9 9 8 8 8 8 7 7 7 7 7 7 7 8 8 8 9 9 9 10 10
14 13 13 12 10 8 9 8 7 7 7 7 6 5 5 5 5 5 6 5 5 5 5 6 6 6 6 6 6 5 5 5 6 6 6 4 2 5 6 5 5 5 6 6 7 8 9 9 9 9 9 10 10 10 10 11 11 11 11 11 11 11 10 10 10 9 9 9 9 8 8 8 8 8 9 9 9 10 10 11 11 11 11 12 12
13 12 11 11 9 9 9 8 7 7 7 7 6 5 5 5 5 5 6 5 4 5 5 5 5 5 6 6 5 5 4 4 6 6 5 5 3 3 5 6 6 6 6 6 6 7 8 8 9 9 10 10 11 11 11 11 12 12 12 11 11 11 11 10 10 10 9 9 9 9 9 9 9 9 10 10 10 11 11 11 11 12 12 12 13
13 11 9 9 9 8 8 8 7 7 7 7 6 5 4 4 4 3 5 5 3 4 4 4 5 4 5 5 4 4 4 4 5 5 4 5 5 3 3 5 7 7 7 7 6 7 7 8 9 10 10 11 11 11 12 12 12 12 12 11 11 11 10 10 10 10 10 9 9 9 10 10 10 10 10 10 10 10 10 10 10 10 11 11 11
13 11 8 8 8 8 7 7 7 7 6 7 6 5 4 4 3 2 5 4 3 3 3 4 4 4 4 5 4 4 4 4 5 5 5 4 4 4 2 4 6 6 8 9 7 7 7 8 9 10 10 11 11 11 11 12 12 11 11 11 11 11 11 11 11 10 10 10 10 10 10 11 11 11 11 11 11 10 10 10 10 10 9 10 10
14 13 8 7 7 7 6 6 8 5 4 8 7 4 5 4 3 3 4 5 4 4 4 4 4 4 4 4 5 4 4 4 5 6 5 4 3 3 2 3 3 2 4 7 8 7 7 7 8 9 10 10 11 11 11 11 11 11 11 11 11 11 11 11 11 11 11 11 11 11 12 12 13 13 13 13 13 12 12 11 10 10 10 10 10
14 15 9 6 7 6 5 7 8 5 5 8 7 4 4 4 4 4 4 6 7 4 3 4 4 4 5 5 5 5 5 5 5 6 5 5 4 4 3 3 2 2 2 3 6 7 6 6 7 8 9 9 10 10 10 11 11 11 11 11 10 10 10 10 11 12 12 12 13 13 14 14 15 15 15 16 15 15 14 13 12 12 11 11 11
13 15 11 6 6 5 4 6 6 4 5 7 5 4 3 3 5 6 6 7 7 6 3 2 4 4 5 6 5 5 5 5 5 6 5 5 4 4 4 4 5 6 6 4 5 7 6 6 6 7 7 8 9 9 10 10 10 10 10 10 9 9 10 10 10 11 12 13 13 14 14 15 15 16 16 17 18 18 17 16 15 14 13 12 12
11 13 12 6 6 6 4 5 4 4 6 5 3 4 3 4 5 6 7 7 6 5 3 2 3 5 6 6 6 6 6 6 7 7 5 5 5 5 4 4 5 5 3 3 4 7 7 6 5 6 6 6 8 8 9 9 10 10 10 9 9 9 9 10 10 11 11 12 12 13 14 14 15 15 16 17 18 18 18 18 17 16 15 14 14
9 10 11 6 4 5 5 6 5 4 7 5 2 3 4 5 4 4 7 6 5 4 3 3 4 6 8 7 7 7 7 6 6 5 5 7 6 4 4 3 4 3 3 5 4 5 6 7 6 6 5 4 5 7 7 8 8 9 9 10 10 10 10 10 10 10 10 11 11 12 12 13 14 15 15 16 17 17 18 18 18 18 17 16 16
8 8 10 8 5 4 5 6 4 4 7 5 2 1 4 5 4 6 7 5 4 3 3 5 6 7 8 8 8 7 7 6 6 5 6 7 6 5 4 2 4 4 3 4 1 2 5 7 5 5 6 3 4 5 6 6 7 7 8 9 10 10 10 10 11 11 11 11 11 12 12 13 13 14 15 16 16 17 18 19 19 19 18 18 17
8 7 8 9 7 5 6 6 4 4 5 4 2 3 4 4 4 6 5 4 4 3 4 6 6 8 8 8 8 7 7 6 6 6 6 6 4 6 5 0 4 6 4 3 2 2 5 6 4 3 6 5 3 4 5 6 6 7 7 8 9 10 11 11 11 12 12 12 12 12 12 12 13 14 15 16 16 17 18 19 19 19 19 19 18
8 7 7 8 7 5 5 5 4 4 4 3 3 3 4 4 4 4 3 3 4 4 6 5 5 7 8 8 8 6 6 6 6 6 5 5 3 4 5 3 3 4 1 3 6 6 4 5 4 3 4 5 5 5 6 7 7 8 8 9 10 10 11 12 12 12 12 12 12 12 12 13 13 14 15 16 16 17 18 18 19 19 19 19 18
7 7 6 6 7 5 3 3 4 4 3 4 4 3 4 5 4 3 4 4 4 4 5 5 5 5 6 6 7 7 7 7 8 7 7 6 4 3 4 5 5 3 1 3 4 4 1 2 2 3 3 2 3 5 6 7 9 8 8 9 10 10 11 12 12 12 12 13 13 13 13 13 14 14 15 16 16 17 18 18 19 19 19 19 18
6 6 4 5 7 6 4 3 3 4 3 4 4 3 3 3 3 3 4 4 4 5 4 5 5 5 4 4 6 6 6 7 8 8 6 6 5 4 4 5 5 2 3 4 2 0 2 1 2 3 3 4 4 4 3 7 11 10 9 9 9 10 11 12 13 13 13 13 13 13 14 14 14 15 16 16 17 17 18 18 19 19 19 18 18
7 7 5 5 6 6 6 4 3 4 4 3 2 2 2 2 3 4 4 4 6 5 4 5 5 5 5 4 4 5 4 5 7 5 4 5 5 4 4 4 4 3 3 4 2 1 1 3 6 5 6 5 5 6 5 7 10 11 9 8 9 10 12 13 14 14 14 14 14 14 14 15 15 16 17 17 18 18 18 18 19 19 19 18 18
7 7 6 6 6 5 5 5 2 3 4 3 2 2 3 1 2 3 2 3 7 6 4 5 4 5 4 4 4 5 3 3 4 3 1 3 3 4 6 4 2 4 4 3 1 2 2 2 6 7 6 5 4 6 6 7 8 8 9 9 9 11 12 13 14 15 15 15 14 14 15 16 16 17 18 19 19 19 18 18 19 19 19 19 18
5 7 6 5 5 5 5 5 3 2 2 4 3 2 2 1 1 3 3 4 7 7 4 4 4 3 2 3 3 3 2 2 2 2 1 1 1 4 6 4 3 4 4 3 4 1 2 2 2 3 2 3 4 4 5 9 10 8 9 10 10 11 13 14 15 15 16 15 15 15 15 16 17 18 19 19 20 19 19 18 18 18 18 18 18
7 7 6 5 5 5 4 5 5 3 2 2 1 1 2 2 2 2 3 4 6 5 4 5 5 3 2 2 2 2 2 2 2 2 1 0 2 4 4 4 4 3 4 6 6 1 2 2 1 3 4 5 6 5 4 7 12 11 11 12 12 12 13 14 15 16 16 15 15 15 15 16 17 18 19 19 19 18 18 18 18 17 17 17 17
8 7 6 6 5 5 4 4 5 4 3 2 2 3 3 3 2 1 1 2 3 4 4 5 4 3 1 1 3 3 1 2 3 2 2 2 2 3 3 5 4 3 4 5 4 2 2 2 2 2 3 5 8 9 6 3 6 10 12 14 15 14 14 14 15 15 15 15 15 15 16 17 17 18 19 18 18 17 17 17 17 17 17 17 17
7 7 6 6 6 5 4 3 3 3 3 4 4 4 3 2 1 0 1 1 1 2 3 2 1 2 1 1 2 2 0 1 2 2 3 3 4 5 6 6 4 3 4 4 5 5 5 4 3 2 4 5 7 9 9 9 7 6 11 16 17 16 15 14 14 14 14 14 15 15 16 16 17 17 17 16 16 16 17 17 17 18 18 18 17
7 7 7 6 6 6 4 3 4 4 4 4 3 2 2 1 2 2 2 1 1 1 1 1 1 1 2 1 1 0 1 1 2 2 2 4 5 5 5 2 2 3 4 4 6 5 5 5 4 4 5 6 6 6 8 11 11 9 12 18 21 19 15 13 13 14 14 15 15 15 15 16 16 16 16 16 16 17 17 17 18 18 18 19 18
8 8 7 7 7 6 6 6 6 5 5 4 4 4 4 3 4 4 2 2 2 2 2 2 2 2 1 2 2 2 1 1 3 2 1 3 4 5 5 4 3 3 2 4 5 4 4 5 5 4 6 7 7 9 10 8 11 13 14 19 22 18 13 13 14 14 14 15 14 14 15 16 17 17 17 17 17 17 18 18 18 18 19 20 19
9 8 7 8 8 8 8 8 7 7 7 6 7 8 8 5 4 3 2 3 3 2 2 2 3 4 3 3 3 2 3 2 3 3 2 2 3 4 5 5 5 5 4 4 5 6 6 5 5 5 6 6 7 13 13 7 9 14 15 18 19 15 14 15 14 14 15 15 15 15 16 17 18 18 18 18 18 18 18 18 18 19 20 20 20
8 7 7 8 7 8 8 8 8 8 7 6 7 7 8 7 5 4 4 5 4 3 3 3 4 4 3 4 4 4 4 2 3 4 4 4 3 5 7 6 5 6 5 3 5 7 6 5 5 6 6 7 7 12 13 8 9 14 16 16 15 14 16 16 14 15 16 16 17 17 18 19 19 20 20 20 20 19 19 19 19 20 21 21 22
7 7 8 9 9 8 8 8 8 7 6 6 5 5 6 6 5 5 5 4 4 3 3 3 4 4 4 4 5 4 3 3 4 4 4 4 4 4 7 6 5 5 5 4 5 5 4 3 3 4 5 7 8 9 10 9 11 15 16 16 13 14 17 16 15 17 17 18 18 19 20 20 21 21 21 22 22 21 21 20 20 21 21 22 22
7 8 9 10 10 9 8 8 8 7 7 7 6 5 6 5 4 5 4 2 5 4 3 3 4 4 4 4 4 4 4 4 5 5 4 4 3 3 4 5 5 5 5 5 5 4 5 4 4 5 6 7 9 9 9 10 12 15 16 15 13 13 16 17 17 18 18 19 19 20 21 21 22 23 23 23 23 23 23 22 21 21 21 22 22
8 8 9 9 10 9 8 7 8 7 7 6 6 6 5 4 4 4 3 4 7 6 3 3 4 4 4 4 4 4 4 5 5 6 7 6 4 3 3 4 5 5 5 6 6 6 7 7 6 7 7 7 9 9 8 10 13 15 15 15 13 13 15 18 18 18 19 20 21 22 23 23 23 23 24 24 25 25 24 23 22 21 20 21 21
8 8 8 9 9 9 9 9 8 8 7 6 7 6 4 3 5 5 3 4 6 5 4 4 4 4 4 4 6 4 4 7 5 4 8 6 4 4 4 4 5 5 5 6 7 8 8 8 8 8 8 9 10 9 9 11 14 16 15 14 14 14 17 19 17 17 19 22 23 24 24 26 26 25 26 26 26 26 26 24 23 22 21 21 21
9 9 9 9 9 9 9 9 9 8 7 7 7 6 4 4 5 4 5 5 5 4 4 3 3 5 6 5 6 6 5 7 5 4 6 5 4 4 4 4 5 5 5 6 8 9 8 9 11 11 11 11 10 11 11 11 13 16 15 15 17 18 20 20 18 18 21 23 23 24 26 27 28 28 27 27 27 27 26 25 23 23 22 22 21
10 10 10 9 9 9 9 9 9 8 8 8 8 7 6 5 5 5 6 6 6 5 4 4 4 5 6 6 6 6 6 6 6 6 6 6 5 5 5 5 6 6 6 7 9 10 9 10 11 12 11 11 11 11 11 11 12 14 15 16 18 19 20 19 18 19 21 22 23 25 26 27 29 29 27 26 27 26 25 25 24 23 23 23 22
10 10 10 10 10 10 9 9 10 9 9 9 9 9 8 6 7 7 7 7 7 5 5 6 6 6 7 8 7 7 7 7 6 7 7 6 6 6 6 6 6 6 6 7 9 11 12 11 11 12 12 12 12 11 11 12 13 14 16 17 18 18 18 18 18 19 20 22 24 24 26 28 29 28 28 28 27 24 24 24 23 23 23 23 23
12 11 11 10 11 11 11 11 10 10 12 12 10 9 9 8 8 8 7 8 7 6 7 7 7 7 8 9 8 7 7 7 7 7 7 7 7 7 7 7 7 7 7 8 10 12 13 13 13 13 13 12 13 13 13 14 15 17 18 18 18 17 17 18 19 19 20 21 22 24 26 27 26 27 29 29 27 26 24 22 22 22 21 21 21
12 12 12 11 12 12 11 12 12 12 13 13 10 10 11 10 9 8 8 8 7 7 8 7 7 7 8 9 9 8 8 8 8 8 8 8 8 8 8 8 9 9 9 10 11 12 13 14 14 14 14 14 14 15 15 15 16 17 18 18 18 18 18 18 19 19 20 20 22 25 25 23 24 27 28 28 29 28 24 21 21 21 20 20 19
13 13 13 12 12 13 13 12 13 13 13 12 11 11 12 11 10 9 9 9 9 8 8 8 8 8 8 9 9 9 9 9 9 9 9 9 9 9 9 9 10 10 10 11 12 12 14 15 15 15 15 16 17 16 15 16 17 18 19 19 19 19 20 19 19 19 19 21 23 23 22 23 26 26 24 27 31 28 24 22 21 20 20 19 17
14 13 13 13 13 14 14 13 13 13 12 12 11 11 11 11 10 9 10 10 10 9 9 9 9 9 10 10 9 9 10 10 10 10 9 9 9 10 10 10 10 11 11 11 12 13 14 15 17 18 18 18 18 16 16 17 18 19 19 20 19 19 20 19 18 18 18 20 21 21 22 24 24 22 24 29 30 28 26 24 21 20 19 17 16
15 14 14 14 14 14 14 13 13 13 12 12 12 12 12 11 11 10 11 11 10 10 10 10 10 10 10 10 11 11 10 10 10 10 10 10 10 10 11 11 11 11 12 12 13 14 15 16 17 18 17 17 17 17 17 17 18 20 21 21 19 19 19 19 19 19 19 20 21 21 22 22 20 21 27 29 28 27 27 24 21 20 19 18 19
15 15 15 14 14 15 15 14 14 13 14 14 13 13 13 12 12 12 11 11 11 10 10 10 10 11 11 11 11 11 11 11 11 11 11 11 11 11 11 12 12 13 13 13 13 14 15 16 17 17 17 17 17 18 18 18 18 19 19 20 21 21 21 21 22 22 21 23 24 24 21 19 20 24 27 27 27 27 26 23 21 18 18 20 22
16 16 16 15 15 15 15 15 14 14 15 15 15 15 14 13 13 12 12 12 11 11 11 11 11 12 12 12 12 12 12 12 12 12 12 11 11 12 11 12 12 13 14 15 15 15 17 17 17 18 18 18 19 18 18 18 18 18 18 20 23 24 24 23 23 23 25 27 27 24 21 20 22 25 26 27 27 25 23 22 20 17 17 21 22
16 17 16 16 16 15 15 15 15 15 15 15 16 16 15 14 14 13 13 13 12 12 12 12 12 12 13 13 13 13 13 12 13 16 16 15 15 15 15 14 14 15 17 17 17 17 18 18 18 19 19 19 18 18 18 18 19 21 21 21 23 24 24 25 26 27 28 27 26 25 25 25 27 29 30 29 25 21 20 20 17 17 20 21 21
17 17 16 17 17 16 16 16 15 16 16 16 16 16 16 15 13 12 13 13 12 12 12 13 13 13 14 14 14 14 15 15 17 20 21 20 18 18 18 18 18 18 19 19 18 18 18 18 19 19 19 19 19 20 21 22 24 25 25 24 26 27 27 29 30 30 29 26 25 27 29 31 33 35 33 27 21 19 18 16 15 19 22 22 22
18 17 17 17 18 17 17 16 16 16 16 16 16 18 18 18 16 13 12 12 12 12 13 14 14 14 15 15 15 15 16 17 19 20 20 19 18 17 18 18 18 18 19 19 19 19 19 20 21 21 21 22 24 26 26 27 27 28 28 27 29 29 28 27 30 31 30 27 28 31 35 36 35 33 30 24 20 18 17 17 19 21 22 23 23
18 19 19 18 18 18 18 17 17 17 16 16 17 19 20 20 20 18 16 14 14 14 14 14 14 15 15 16 16 16 16 16 16 16 17 18 18 18 18 18 19 19 20 21 21 22 22 23 24 25 25 26 29 30 29 27 27 28 27 27 26 25 25 26 29 33 33 31 32 35 37 34 29 26 24 21 18 17 18 19 21 23 24 25 23
19 20 21 20 20 21 20 19 18 17 17 17 18 19 21 22 22 21 19 16 15 15 15 14 14 14 14 15 15 16 16 14 14 15 15 17 18 19 18 19 19 19 20 21 21 22 23 23 26 28 27 27 29 30 29 27 27 28 27 28 28 28 30 32 34 36 35 33 32 32 32 29 25 22 21 20 19 19 19 20 21 23 25 24 21
21 22 22 22 22 22 23 22 19 17 18 19 19 20 21 22 24 23 21 18 17 16 16 16 15 15 15 15 15 15 15 16 17 17 15 15 17 18 16 16 18 18 20 21 21 22 22 22 24 27 27 27 28 30 30 29 30 31 32 35 36 36 37 37 37 36 33 29 26 26 29 28 24 22 22 21 21 21 20 20 20 23 25 23 21
22 21 21 21 21 20 20 20 18 18 20 21 20 21 21 23 25 25 23 21 19 18 18 17 16 16 16 16 15 15 16 18 19 19 18 18 19 19 17 16 17 19 21 22 22 23 22 22 24 25 26 28 29 30 30 31 32 33 34 36 36 35 35 33 31 29 27 24 21 22 27 28 23 22 23 23 22 21 21 21 20 20 22 22 23
22 21 20 18 18 19 20 20 18 18 22 24 23 22 23 24 26 26 23 21 21 21 20 19 18 17 18 18 18 19 20 20 18 18 19 20 21 21 22 21 20 21 22 23 23 23 22 22 24 25 26 28 30 30 28 26 27 27 28 29 29 28 27 26 25 24 23 22 20 20 25 27 24 23 24 24 23 23 22 22 20 17 18 21 24
23 21 19 18 19 20 21 21 19 18 19 21 22 24 25 26 26 25 22 19 20 21 19 18 18 20 22 21 20 20 21 20 18 18 19 20 20 21 21 20 20 21 21 21 22 23 22 23 24 25 27 28 30 29 26 25 24 23 23 25 24 22 21 22 24 25 23 22 21 20 23 25 24 23 24 25 25 25 24 24 21 18 18 21 25
23 20 18 20 22 22 21 21 21 20 20 20 21 23 25 25 25 23 22 21 21 21 19 18 18 19 19 18 19 22 23 22 22 21 21 21 20 20 19 18 19 20 20 21 22 24 24 25 26 27 27 28 28 27 25 24 22 19 18 21 21 21 21 22 23 25 26 23 20 18 21 24 24 25 25 26 26 25 24 25 23 21 21 22 24
24 21 20 22 23 22 23 24 22 23 24 24 25 25 25 25 24 23 24 25 24 22 22 22 20 18 17 16 16 19 22 22 23 23 22 22 22 21 20 20 20 19 19 21 24 25 26 27 27 28 28 27 27 25 23 21 20 19 18 19 19 19 21 21 22 25 27 23 19 20 24 26 26 26 27 26 27 28 27 26 25 25 24 24 24
Wind_Direction
123 124 124 125 118 111 108 104 105 102 100 101 98 110 125 136 131 120 122 131 131 131 124 120 122 121 119 119 116 116 117 115 115 118 119 83 57 66 73 77 87 91 93 98 98 98 96 93 92 91 90 89 89 86 82 79 77 77 75 72 69 65 63 59 56 53 49 46 44 39 33 26 19 11 4 357 353 347 342 338 334 330 327 323 320
130 131 133 130 120 114 113 110 111 111 111 111 109 118 120 114 115 111 117 126 127 128 124 121 121 118 121 120 115 115 113 110 114 118 121 120 55 62 73 71 79 87 91 96 97 97 97 96 95 94 94 90 87 85 83 82 82 80 77 74 71 67 64 61 57 53 48 43 39 33 26 20 14 6 358 354 348 343 339 336 332 328 325 321 318
132 133 135 134 138 135 124 120 117 113 110 111 117 118 111 112 124 129 127 126 125 126 123 120 120 121 119 118 119 115 112 114 114 114 114 124 87 53 65 70 75 83 89 91 93 97 98 99 99 96 93 90 88 86 86 86 84 82 79 76 72 68 64 59 54 47 41 35 30 23 16 9 2 356 350 346 341 338 334 331 328 324 321 318 315
131 131 131 132 136 131 123 120 115 116 118 120 125 118 115 119 120 116 111 115 115 114 122 125 123 127 122 116 117 113 115 118 112 114 111 113 114 58 50 67 79 80 85 87 90 95 97 98 99 97 94 92 92 91 90 88 85 82 78 75 70 66 61 55 48 40 33 26 21 15 8 3 357 353 349 344 339 335 332 328 326 323 320 318 315
129 126 127 128 128 124 124 124 121 125 122 116 111 106 110 104 94 77 88 106 111 102 112 124 124 128 127 115 112 111 110 110 110 115 105 97 108 100 40 48 66 71 78 83 84 89 94 99 100 98 98 97 96 94 93 90 87 82 77 73 68 62 56 49 42 34 27 22 19 15 11 8 4 1 356 352 347 342 338 334 331 328 325 322 319
127 120 121 124 123 124 122 121 120 118 119 119 108 102 107 100 103 92 88 100 101 96 102 114 122 120 116 113 111 114 114 111 107 110 109 101 99 104 76 32 41 46 54 57 67 85 89 95 101 101 101 101 100 99 96 92 86 81 76 70 64 58 52 46 39 33 30 29 28 26 24 22 19 16 12 7 2 356 352 348 344 339 335 331 328
128 119 119 124 120 121 122 129 121 108 126 122 109 108 109 99 103 97 103 115 100 85 94 107 116 108 108 109 105 106 110 105 104 109 105 97 87 83 85 64 31 3 12 19 40 70 83 91 98 101 104 103 102 100 95 91 84 79 74 68 63 56 50 44 40 36 37 39 39 38 36 35 33 30 26 21 16 12 7 2 358 352 347 342 337
131 120 114 124 121 121 131 130 115 112 128 108 96 106 105 100 93 86 103 114 103 86 73 100 114 113 115 110 104 106 107 100 103 114 102 90 86 69 66 68 44 54 62 0 6 37 57 82 93 97 102 101 99 96 91 87 81 77 72 67 63 57 50 45 41 40 41 42 41 41 40 39 38 35 32 30 27 23 19 13 8 3 359 354 349
134 121 114 122 121 120 130 118 105 118 114 89 86 99 84 83 89 95 93 74 75 79 64 96 118 117 116 109 107 104 103 105 104 108 101 89 96 93 71 48 33 38 54 30 343 358 23 59 82 89 95 95 91 88 84 81 77 72 69 66 63 56 50 45 42 40 40 41 39 38 37 35 34 33 30 29 27 25 22 19 15 11 7 2 359
141 127 118 125 128 130 139 124 116 112 96 84 96 100 92 80 77 98 97 69 56 64 59 78 113 119 114 108 108 103 101 113 114 110 107 101 114 116 94 66 46 23 40 77 9 334 344 14 50 66 76 89 90 85 80 76 71 65 62 59 56 51 46 42 39 38 37 37 35 32 30 27 26 25 24 22 20 19 18 18 16 13 10 6 2
145 135 124 125 132 139 147 127 119 109 101 103 88 87 106 96 85 90 85 72 58 50 52 75 96 103 104 105 106 104 107 118 122 123 127 121 118 107 92 113 108 41 27 74 50 336 333 341 0 20 27 64 86 82 74 66 61 55 49 46 44 42 40 37 33 32 31 28 27 25 21 18 16 15 15 14 12 12 12 11 12 11 10 8 4
146 141 132 133 134 146 144 121 112 114 107 101 79 101 107 93 95 86 67 51 53 56 71 87 101 100 99 106 105 108 116 127 135 127 130 131 129 126 122 132 116 95 51 59 55 337 352 336 345 357 338 357 66 70 61 51 47 41 36 33 33 34 32 32 30 26 24 21 18 16 12 9 8 7 5 5 4 4 4 4 5 5 6 6 4
143 139 138 140 141 153 146 126 123 136 127 122 146 140 109 89 81 69 55 37 48 68 88 97 114 113 107 110 111 116 116 125 142 127 123 136 135 131 141 194 57 81 85 99 103 29 6 345 16 18 304 315 6 37 41 35 31 23 21 22 22 23 22 22 23 21 19 16 13 9 5 2 360 358 356 355 356 356 357 357 357 358 359 1 2
144 143 142 140 142 149 141 136 142 149 144 132 123 117 106 88 53 40 60 57 52 74 94 99 118 127 119 117 122 127 120 123 140 143 137 141 130 109 129 157 99 90 99 87 65 50 11 333 20 38 304 306 320 335 2 14 17 11 9 15 15 14 16 16 16 16 15 12 11 8 2 359 354 350 349 347 348 350 350 351 351 351 352 354 357
149 145 144 148 148 136 124 148 148 139 138 119 106 100 95 75 42 51 91 83 68 75 89 84 96 128 122 119 126 123 126 127 129 140 142 138 135 128 142 145 135 138 158 104 58 57 136 283 25 39 344 338 320 322 331 341 351 359 2 9 15 17 16 15 14 11 12 9 8 7 2 358 353 347 345 343 343 344 344 345 345 345 346 347 351
156 145 157 174 157 141 149 175 155 134 129 110 95 77 74 70 64 65 66 93 97 76 83 76 84 130 135 141 137 116 115 119 125 135 133 137 142 148 161 141 138 148 121 147 222 354 140 337 46 67 27 28 12 358 325 316 332 347 3 13 20 26 22 18 16 11 9 7 5 4 0 358 354 350 346 343 342 341 341 340 340 341 341 342 344
169 158 172 183 167 164 166 163 152 132 115 93 83 87 99 89 94 65 46 117 112 81 80 73 81 124 129 138 121 88 81 100 131 142 103 120 137 139 149 134 148 181 140 148 239 311 165 339 3 24 37 40 16 11 0 322 326 338 357 21 25 24 23 17 16 12 7 4 1 358 355 352 351 349 347 345 343 342 341 339 338 339 339 339 339
179 169 175 182 174 178 165 147 154 150 136 142 131 106 109 89 97 92 70 120 112 96 93 82 88 103 99 111 90 72 72 88 131 163 89 100 124 139 151 147 152 165 160 161 103 89 170 303 342 353 15 22 359 12 4 330 330 331 339 5 14 9 11 9 8 7 2 359 354 350 347 345 344 343 343 342 342 342 342 341 338 336 337 336 335
186 190 182 184 181 183 173 153 159 190 158 139 108 70 123 176 195 146 137 130 119 116 113 104 108 104 98 121 103 83 107 106 119 166 167 88 110 143 154 165 152 146 168 169 136 122 245 256 318 324 331 312 319 8 357 326 333 331 330 348 355 354 357 357 357 356 354 351 346 343 340 338 338 337 338 338 339 341 342 341 339 336 336 335 334
191 207 187 188 193 185 184 163 162 195 194 148 137 210 198 217 232 171 145 136 127 129 133 114 98 95 135 148 148 148 138 136 142 171 195 5 144 151 164 173 153 156 187 169 149 146 267 211 260 284 277 285 302 343 359 332 332 322 317 332 338 342 346 346 348 347 345 345 340 338 335 333 333 333 333 335 337 341 342 342 342 340 338 336 334
199 214 196 198 202 189 193 181 174 191 183 175 222 212 215 236 240 156 130 135 135 139 140 127 94 79 98 183 156 161 205 196 183 189 206 228 186 171 188 178 165 184 196 186 183 207 227 230 284 266 269 310 328 342 338 299 317 312 305 318 327 333 336 337 340 341 340 339 336 333 332 331 331 331 331 335 339 343 345 345 345 344 342 339 336
206 218 209 203 204 193 199 199 193 207 198 200 219 216 224 240 240 242 209 186 159 145 147 154 137 126 156 193 148 132 319 222 216 215 212 231 224 228 223 191 189 212 179 195 242 239 233 257 299 256 260 306 329 333 309 291 308 310 300 311 322 326 328 331 336 339 338 335 334 333 334 334 333 334 336 339 343 346 346 346 345 345 344 342 340
203 221 215 202 209 196 190 210 210 214 211 202 213 229 233 240 253 257 239 211 202 194 208 230 239 196 169 188 223 210 107 208 265 257 250 269 262 269 274 234 228 239 191 214 253 248 245 256 264 279 298 305 307 292 279 294 313 313 302 309 318 321 326 334 337 338 338 337 338 338 339 340 340 342 343 343 345 345 346 345 344 344 343 343 344
200 219 209 195 214 205 186 205 210 207 210 198 199 205 190 194 241 257 264 245 233 237 230 239 267 248 199 222 248 261 244 239 276 278 277 283 276 279 302 338 325 284 262 253 254 251 258 263 261 289 315 318 317 295 282 296 312 314 308 304 310 318 330 341 339 337 339 340 340 340 342 343 343 345 346 344 344 342 341 341 341 343 342 341 342
201 214 199 192 215 214 194 202 211 209 208 204 206 202 186 189 232 245 257 267 257 245 226 238 265 242 229 250 255 268 267 262 283 275 266 285 290 290 308 330 315 303 303 274 274 277 259 256 264 264 282 296 292 284 289 308 309 303 298 296 307 320 329 335 335 335 339 338 337 337 338 340 340 342 342 341 340 338 336 335 337 338 339 338 337
203 206 198 192 207 218 208 207 214 213 210 212 216 213 199 203 225 211 211 245 256 248 242 266 273 251 252 271 276 279 259 252 293 282 280 291 304 334 340 332 308 304 299 275 291 290 260 252 260 250 272 295 287 283 297 321 303 288 290 301 315 320 318 325 332 335 336 334 333 334 335 337 338 339 339 338 336 334 331 330 330 331 332 333 333
205 203 202 192 196 218 218 211 215 215 213 216 218 228 220 214 229 213 201 236 257 243 243 264 266 262 275 268 269 294 285 272 291 295 316 314 299 333 340 333 324 314 303 298 305 295 281 285 253 246 290 304 302 303 306 312 300 293 301 311 314 309 311 321 332 333 332 330 331 333 334 336 337 338 339 337 336 335 332 329 325 323 324 326 328
207 206 207 201 203 217 219 215 221 217 215 219 210 220 231 218 228 227 194 238 271 254 237 259 263 261 273 270 266 293 299 287 288 289 313 321 302 306 319 325 330 325 322 322 313 303 317 320 278 278 298 291 300 315 310 305 298 294 303 309 307 307 310 317 325 327 326 328 330 331 331 334 335 336 337 337 337 337 335 332 326 321 319 319 321
204 207 209 208 210 213 209 213 226 223 218 223 218 223 234 222 235 243 195 211 255 257 239 244 260 260 261 275 275 274 289 285 278 287 297 302 300 300 311 321 328 333 334 326 311 303 311 318 306 310 324 314 311 318 313 305 296 292 302 308 307 305 302 309 320 323 325 328 329 330 331 332 333 333 334 335 335 336 335 333 330 325 321 318 318
200 201 203 208 213 213 207 205 219 229 219 217 232 238 235 224 247 262 236 229 247 251 249 239 240 251 244 253 256 246 273 278 259 282 305 309 306 302 309 318 320 323 322 316 310 306 308 313 312 317 326 321 314 311 307 304 300 302 308 307 305 304 303 314 327 327 324 325 326 328 328 328 331 331 331 332 332 333 334 333 332 329 326 322 319
203 200 197 204 215 218 215 208 214 227 220 213 230 241 228 218 240 253 243 257 264 244 247 251 237 248 244 239 245 242 261 275 262 268 291 293 293 296 297 300 301 300 300 303 301 301 308 310 307 308 312 312 313 312 306 302 304 307 308 305 308 313 316 325 331 324 319 321 323 323 321 323 327 327 327 328 330 332 333 333 332 330 329 327 324
211 211 205 204 210 215 217 212 213 219 219 214 221 236 235 217 219 231 231 251 269 251 234 237 234 250 255 247 249 250 253 264 268 272 277 279 281 285 285 286 289 290 290 294 293 294 299 299 300 305 308 309 312 311 307 307 307 305 301 302 308 314 317 320 318 315 315 317 318 317 315 318 322 324 326 328 330 332 332 332 331 330 330 328 327
212 216 216 210 210 212 209 211 214 213 218 216 211 227 238 223 216 227 233 241 247 239 233 233 231 240 253 253 252 253 253 255 265 272 277 282 280 278 281 283 287 284 280 286 292 296 299 300 301 303 305 307 308 306 305 305 303 298 296 300 306 310 312 311 309 310 310 312 313 311 310 314 319 323 327 329 331 333 333 331 330 329 329 328 328
213 214 220 218 216 214 208 212 212 208 223 227 213 216 230 234 230 223 235 255 251 235 239 242 238 240 250 258 259 260 267 269 271 275 279 283 283 283 283 283 285 285 282 286 290 294 299 302 304 305 306 307 303 301 302 301 301 301 301 304 307 308 308 307 306 306 307 309 309 305 307 314 319 321 324 327 332 334 334 334 330 329 330 331 330
216 215 219 218 219 217 210 214 212 209 226 234 218 213 224 235 239 223 225 250 253 243 246 250 250 250 253 261 265 264 267 270 271 273 277 281 285 286 285 284 284 284 284 286 288 291 296 302 306 306 305 303 301 301 303 303 302 303 303 305 305 305 306 305 305 305 306 306 304 305 312 317 317 317 321 325 329 333 335 335 332 330 331 333 333
217 218 219 216 218 221 215 215 219 217 225 232 223 220 227 236 240 233 227 233 238 240 243 244 248 251 253 258 263 265 264 265 268 271 275 279 281 282 283 284 285 286 287 287 289 291 293 298 304 305 305 306 308 308 307 304 302 303 304 304 304 304 305 306 306 307 306 305 307 314 319 314 312 315 317 321 326 332 336 336 333 331 331 333 333
219 219 220 217 216 222 221 218 223 224 225 229 227 224 231 239 241 240 239 238 240 243 244 246 248 249 252 256 259 263 264 266 269 273 276 277 277 280 282 283 284 286 287 286 288 291 292 295 301 307 310 311 310 308 306 305 305 306 306 305 306 307 307 307 307 306 307 308 311 315 313 309 312 315 314 317 324 330 334 335 333 331 332 334 335
222 220 222 222 219 221 223 219 222 228 228 228 230 228 228 233 237 239 241 242 244 245 245 249 254 255 256 258 260 260 261 263 266 269 271 272 273 277 280 282 283 285 286 289 292 294 295 296 299 304 307 307 305 304 303 304 305 305 307 308 311 311 309 307 306 306 309 310 308 311 314 314 314 311 312 317 322 326 329 330 332 333 333 336 339
223 223 222 223 223 223 226 224 223 228 232 230 230 232 229 229 233 235 236 239 242 245 246 248 250 253 255 257 260 260 260 261 262 264 269 273 277 280 281 283 286 288 290 291 293 293 292 293 295 298 300 300 300 302 303 306 307 305 307 310 311 310 308 306 306 307 309 309 309 313 319 317 310 310 314 317 318 321 323 326 330 332 329 332 338
222 225 224 224 224 224 226 228 225 227 233 233 231 232 232 229 230 234 237 239 240 242 247 249 250 253 255 257 258 259 260 262 263 263 262 264 269 274 279 282 283 283 284 286 288 289 290 291 294 296 297 298 300 303 305 308 309 307 307 309 308 308 309 307 306 305 306 308 310 311 311 309 309 313 315 315 317 320 321 324 326 323 320 327 334
223 225 226 225 225 225 225 227 227 227 231 233 233 234 234 232 234 237 238 240 243 244 247 251 253 255 256 258 259 259 258 259 260 260 260 261 264 264 266 271 275 278 282 286 288 288 289 291 292 295 297 299 301 305 306 308 309 307 307 306 304 304 305 303 301 302 305 307 308 307 306 307 310 315 317 318 319 319 317 318 316 310 312 320 326
223 224 225 225 225 226 226 227 229 230 231 234 238 239 237 235 236 236 235 237 241 243 245 249 252 255 257 259 261 262 261 259 259 262 268 272 272 269 270 275 280 284 287 288 289 289 289 290 292 296 299 300 302 306 308 309 309 309 308 307 305 305 305 304 304 307 309 309 307 306 306 308 311 315 318 317 315 313 312 310 303 300 306 314 321
221 222 223 225 225 226 228 229 230 232 234 237 241 244 244 242 239 237 238 242 245 245 247 251 254 257 260 261 263 265 266 265 266 271 277 277 272 272 277 282 285 286 289 290 291 291 291 290 293 296 298 300 304 308 311 311 310 310 308 307 308 309 308 307 306 309 311 311 308 306 306 309 311 312 313 312 310 311 311 303 298 300 308 317 322
220 221 222 224 225 227 229 231 233 236 240 241 242 245 249 252 252 249 247 248 251 252 254 256 258 259 261 263 264 266 267 268 269 273 277 277 274 274 274 276 280 283 288 291 293 294 294 293 294 296 299 302 305 307 308 308 307 306 305 306 309 309 307 305 305 306 310 311 308 306 308 311 311 307 306 308 308 308 306 302 301 303 309 315 319
223 225 225 224 226 227 229 233 237 242 247 248 246 247 250 254 258 259 254 249 249 253 253 253 255 258 261 265 266 265 267 270 269 266 267 271 276 278 276 274 275 278 282 285 286 288 291 292 293 294 297 301 303 304 306 307 306 305 305 306 307 305 303 304 304 305 309 312 312 311 311 315 315 307 302 304 305 305 306 304 302 300 304 312 320
226 229 230 229 231 232 233 236 238 244 250 250 246 246 248 253 257 260 259 253 250 253 255 256 257 258 260 263 267 270 271 270 264 260 259 262 270 277 282 279 276 277 280 282 282 283 286 289 292 295 298 300 301 302 304 304 302 301 300 301 301 301 302 303 305 306 310 316 317 311 309 314 318 311 304 304 307 309 308 305 302 301 306 315 322
227 231 233 232 232 235 236 236 237 241 244 243 242 241 243 249 255 260 263 258 253 253 253 255 257 259 260 262 264 266 265 263 260 258 259 262 267 273 277 276 276 280 283 285 285 285 285 286 288 291 294 296 297 299 300 299 295 294 294 296 299 302 304 306 306 307 312 317 315 306 304 310 313 309 304 306 308 308 306 307 307 306 309 313 314
227 230 232 230 227 226 226 226 228 233 234 234 236 238 239 244 250 257 262 262 259 257 256 257 259 259 257 254 252 254 257 259 261 261 262 265 268 272 274 277 280 281 282 284 284 282 280 279 282 285 288 291 294 297 300 299 297 297 297 298 303 309 311 309 306 307 309 311 309 303 303 305 308 309 309 308 308 306 306 310 314 311 307 306 309
232 231 233 236 232 225 224 225 228 235 236 232 234 238 241 244 248 253 257 256 255 256 257 258 252 247 247 246 247 251 256 261 265 266 267 269 271 273 276 279 280 279 281 283 282 281 278 277 281 285 288 290 293 297 299 299 300 303 305 306 311 315 312 307 306 307 308 309 310 307 303 303 307 311 311 310 308 307 308 313 317 313 307 307 311
243 241 240 244 241 234 233 233 233 239 242 239 237 238 241 245 250 253 252 250 250 254 260 261 252 245 247 250 251 254 257 262 266 268 270 272 272 273 275 276 277 279 281 281 281 282 283 284 287 289 290 292 294 296 298 299 302 307 310 313 316 313 307 305 307 308 307 309 313 312 306 306 307 308 310 311 309 308 311 315 316 313 310 310 311
249 248 242 242 241 238 238 238 236 239 245 247 247 245 246 250 253 253 252 253 254 255 259 261 255 251 254 255 256 260 259 259 262 264 267 269 269 268 270 272 275 276 276 277 280 284 286 289 291 291 292 293 296 299 303 306 309 311 308 308 311 308 303 304 306 306 305 306 310 309 305 306 307 307 310 313 311 311 314 317 316 315 314 312 309